Weather History for Wellsville, NY

Change the Weather History Date:

Saturday, April 6, 2013

  Actual Average (KBFD) Record (KBFD)
Temperature  
Mean Temperature 34 °F 40 °F  
Max Temperature 48 °F 51 °F 77 °F (2010)
Min Temperature 19 °F 29 °F 7 °F (1982)
Degree Days  
Heating Degree Days 32 20  
Month to date heating degree days 124  
Since 1 July heating degree days 6731  
Cooling Degree Days 0 0  
Month to date cooling degree days 0  
Year to date cooling degree days 0  
Moisture  
Dew Point 9 °F    
Average Humidity 42    
Maximum Humidity 72    
Minimum Humidity 15    
Precipitation  
Precipitation 0.00 in 0.12 in 0.77 in (1986)
Month to date precipitation 0.73  
Year to date precipitation 9.74  
Sea Level Pressure  
Sea Level Pressure 30.22 in    
Wind  
Wind Speed 7 mph (SE)    
Max Wind Speed 15 mph    
Max Gust Speed 23 mph    
Visibility 10 miles    
Events      
T = Trace of Precipitation, MM = Missing Value Source: NWS Daily Summary

Daily Weather History Graph

Daily Weather History Graph

Search for Another Location

Airport:

Trip Planner

Search our weather history database for the weather conditions in past years. The results will help you decide how hot, cold, wet, or windy it might be!

Date:

Astronomy

Apr. 06, 2013 Rise Set
Actual Time 6:45 AM EDT 7:43 PM EDT
Civil Twilight 6:17 AM EDT 8:12 PM EDT
Nautical Twilight 5:43 AM EDT 8:46 PM EDT
Astronomical Twilight 5:08 AM EDT 9:21 PM EDT
Moon 4:32 AM EDT (4/6) 4:06 PM EDT (4/6)
Length of Visible Light 13h 54m
Length of Day
12h 57m
Waning Crescent, 15% of the Moon is Illuminated
Apr 6
Waning Crescent
Apr 10
New
Apr 18
First Quarter
Apr 25
Full
May 2
Last Quarter

Hourly Weather History & Observations

Time (EDT) Temp. Windchill Dew Point Humidity Pressure Visibility Wind Dir Wind Speed Gust Speed Precip Events Conditions
12:56 AM 25.0 °F 14.2 °F 15.1 °F 66% 30.16 in 10.0 mi NNW 11.5 mph - N/A   Partly Cloudy
1:16 AM 24.8 °F 15.3 °F 14.0 °F 64% 30.11 in 10.0 mi NNW 9.2 mph - N/A   Mostly Cloudy
1:56 AM 25.0 °F 15.5 °F 12.9 °F 60% 30.18 in 10.0 mi NNW 9.2 mph - N/A   Overcast
2:56 AM 24.1 °F 15.2 °F 12.9 °F 62% 30.20 in 10.0 mi North 8.1 mph - N/A   Overcast
3:28 AM 23.0 °F 14.7 °F 12.2 °F 63% 30.14 in 10.0 mi North 6.9 mph - N/A   Partly Cloudy
3:56 AM 21.9 °F 13.4 °F 12.0 °F 66% 30.22 in 10.0 mi NNW 6.9 mph - N/A   Clear
4:56 AM 21.9 °F 15.7 °F 12.0 °F 66% 30.23 in 10.0 mi North 4.6 mph - N/A   Clear
5:56 AM 21.0 °F - 12.0 °F 68% 30.25 in 10.0 mi Calm Calm - N/A   Clear
6:56 AM 19.9 °F - 12.0 °F 71% 30.27 in 10.0 mi Calm Calm - N/A   Clear
7:56 AM 23.0 °F - 15.1 °F 72% 30.30 in 10.0 mi Calm Calm - N/A   Clear
8:56 AM 26.1 °F 20.5 °F 15.1 °F 63% 30.31 in 10.0 mi Variable 4.6 mph - N/A   Clear
9:56 AM 28.9 °F 23.9 °F 12.9 °F 51% 30.33 in 10.0 mi SE 4.6 mph - N/A   Clear
10:56 AM 33.1 °F 27.7 °F 9.0 °F 37% 30.32 in 10.0 mi East 5.8 mph - N/A   Clear
11:56 AM 36.0 °F 33.3 °F 8.1 °F 31% 30.32 in 10.0 mi Variable 3.5 mph - N/A   Clear
12:56 PM 39.0 °F 36.8 °F 6.1 °F 26% 30.30 in 10.0 mi Variable 3.5 mph - N/A   Clear
1:56 PM 43.0 °F 40.3 °F 6.1 °F 22% 30.27 in 10.0 mi ESE 4.6 mph - N/A   Clear
2:56 PM 45.0 °F 42.6 °F 6.1 °F 20% 30.24 in 10.0 mi Variable 4.6 mph - N/A   Clear
3:56 PM 46.9 °F - 3.0 °F 16% 30.21 in 10.0 mi Variable 5.8 mph 16.1 mph N/A   Clear
4:56 PM 48.9 °F - 5.0 °F 17% 30.19 in 10.0 mi South 8.1 mph 17.3 mph N/A   Clear
5:56 PM 48.0 °F - 1.9 °F 15% 30.18 in 10.0 mi South 10.4 mph - N/A   Clear
6:56 PM 46.9 °F - 3.0 °F 16% 30.19 in 10.0 mi South 10.4 mph 16.1 mph N/A   Partly Cloudy
7:56 PM 46.0 °F 41.4 °F 3.9 °F 18% 30.17 in 10.0 mi SSE 9.2 mph - N/A   Overcast
8:56 PM 44.1 °F 39.5 °F 5.0 °F 20% 30.18 in 10.0 mi South 8.1 mph - N/A   Clear
9:56 PM 44.1 °F 39.0 °F 7.0 °F 22% 30.15 in 10.0 mi South 9.2 mph 20.7 mph N/A   Overcast
10:56 PM 43.0 °F 36.4 °F 10.9 °F 27% 30.12 in 10.0 mi South 12.7 mph 23.0 mph N/A   Clear
11:56 PM 43.0 °F 35.7 °F 12.0 °F 28% 30.10 in 10.0 mi SSE 15.0 mph 21.9 mph N/A   Clear